Regional Weather Roundup
Issued by NWS Lake Charles, LA

Home | Current Version | Previous Version | Text Only | Print | Product List | Glossary On
Versions: 1 2 3 4 5 6 7 8 9 10 11 12 13 14 15 16 17 18 19 20 21 22 23 24 25 26 27 28 29 30 31 32 33 34 35 36 37 38 39 40 41 42 43 44 45 46 47 48 49 50
000
ASUS44 KLCH 232210
RWRLCH
REGIONAL WEATHER ROUNDUP
NATIONAL WEATHER SERVICE LAKE CHARLES LA
400 PM CST FRI FEB 23 2018

Note: "fair" indicates few or no clouds below 12,000 feet with no
significant weather and/or obstructions to visibility.


ACROSS SOUTHEAST TEXAS

CITY           SKY/WX    TMP DP  RH WIND       PRES   REMARKS
BEAUMONT       PTSUNNY   79  68  69 S12       30.09F
BEAUMONT CITY  CLOUDY    79  67  67 SE14      30.10S
ORANGE         MOCLDY    78  71  79 S12       30.12F
JASPER         FAIR      81  62  50 S10G17    30.10F
$$

ACROSS CENTRAL LOUISIANA

CITY           SKY/WX    TMP DP  RH WIND       PRES   REMARKS
LEESVILLE      FAIR      78  66  66 SE12      30.08F
FULLERTON      CLOUDY   N/A N/A N/A VRB5      30.07F
ALEXANDRIA INT CLOUDY    77  63  61 SE15      30.09F
ESLER FIELD    CLOUDY    78  64  61 S10       30.11F
DERIDDER       FAIR      82  56  41 S13G22    30.11F
OAKDALE        MOCLDY    79  66  64 S6        30.12F
OPELOUSAS      FAIR      77  67  71 S9        30.13S
$$

ACROSS SOUTHWEST AND SOUTH CENTRAL LOUISIANA

CITY           SKY/WX    TMP DP  RH WIND       PRES   REMARKS
SULPHUR        CLOUDY    79  69  72 S9        30.12F
LAKE CHARLES   CLOUDY    79  68  69 S13       30.11S
CHENNAULT INT  PTSUNNY   79  68  69 S15       30.12S
CAMERON PHI    PTCLDY    73  72  94 SE9       30.12F
DEQUINCY       NOT AVBL
JENNINGS       FAIR      80  68  67 S9        30.12S
LAFAYETTE      FAIR      80  68  66 S13       30.12F
NEW IBERIA     FAIR      78  67  68 S14       30.14S
ABBEVILLE      FAIR      79  71  77 S9        30.13S
PATTERSON      FAIR      80  71  74 S16       30.15S
SALT POINT       N/A     77  71  82 VRB6      30.13F
$$

SELECTED SITES ACROSS THE REGION

CITY           SKY/WX    TMP DP  RH WIND       PRES   REMARKS
HOUSTON BUSH   PTSUNNY   79  67  66 S17G23    30.06F
HOUSTON HOBBY  PTSUNNY   76  68  76 S15G24    30.06F
GALVESTON      CLOUDY    75  71  87 SE12      30.09F
COLLEGE STAT   MOSUNNY   70  65  84 CALM      30.03F
CONROE         FAIR      80  66  62 S14G24    30.05F
HUNTSVILLE     PTSUNNY   79  62  56 SE10G17   30.04F
LUFKIN         FAIR      81  62  52 S13       30.05F
SHREVEPORT     FAIR      77  67  71 SE5       30.07F
MONROE         CLOUDY    76  68  76 E7        30.12F
NATCHEZ MS     CLOUDY    71  67  87 SE8       30.16F
BATON ROUGE    PTSUNNY   73  70  90 E7        30.14F FOG
N.O. INTL ARPT PTSUNNY   77  70  79 SE7       30.15F
SLIDELL        CLOUDY    75  68  78 SE16G25   30.17S
$$

MARINE REPORTS

STATION/POSITION TIME  SKY/WX   TEMP    WIND        PRES    VSBY
                                AIR SEA DIR/SP/G
                 (UTC)          (F)     (DEG/KT/KT) (MB)    (MI)
BUOY 30 S HIGH I 2050            65 65  120/  8/ 10 1019.1
WVE H/P(F/S)=  3/ 8

SEA RIM ST PARK  2200            70     130/  8/ 11 1019.6F
PORT ARTHUR      2148            74 69  160/  8/ 12 1019.6F
SABINE PASS N    2148            71 73  140/ 10/ 12 1021.0F
TEXAS POINT      NOT AVBL
CALCASIEU PASS   2148            72 71  160/  8/ 12 1018.8F
LK CHARLES BEACH 2148            78 68              1019.3R
MARSH ISLAND     2100            74                   N/A
FRESH WATER LOCK 2148            75 75  140/ 11/ 12 1020.5F
AMERADA PASS     2148            77 60  170/  6/ 10 1021.0F
$$



USA.gov is the U.S. government's official web portal to all federal, state and local government web resources and services.